^^
Station Historical Data
Daily Summary for May 24, 2017 Units:  Both    English   Metric
« Previous Day
Next Day »
Daily Weekly Monthly Yearly Custom
  High: Low: Average:
Temperature: 73.0 °F /  22.8 °C 44.8 °F /  7.1 °C 57.9 °F /  14.4 °C
Dew Point: 41.0 °F /  5 °C 34.5 °F /  1.4 °C 37.8 °F /  3.2 °C
Humidity: 73% 29% 50%
Wind Speed: 8.1mph /  13km/h - 0.8mph /  1.3km/h
Wind Gust: 12.0mph /  19.3km/h - -
Wind- - SSW
Pressure: 30.37 in /  1028.3 hPa 30.23 in /  1023.6 hPa -
Precipitation: 0.00 in /  0 mm    
Historical Graphs
 
 
Tabular Data for May 24, 2017
Time Temperature Dew Point Pressure Wind Wind Speed Wind Gust Humidity Rainfall Rate (Hourly) solar Conditions
00:01 48.4 °F /  9.1 °C 34.7 °F /  1.5 °C 30.37in /  1028.3hPa Calm     59% 0.00in /  0mm 0.0 W/m2
00:07 48.0 °F /  8.9 °C 34.9 °F /  1.6 °C 30.37in /  1028.3hPa Calm     60% 0.00in /  0mm 0.0 W/m2
00:13 47.8 °F /  8.8 °C 34.7 °F /  1.5 °C 30.37in /  1028.3hPa Calm     60% 0.00in /  0mm 0.0 W/m2
00:20 47.7 °F /  8.7 °C 34.5 °F /  1.4 °C 30.37in /  1028.3hPa Calm     60% 0.00in /  0mm 0.0 W/m2
00:26 47.7 °F /  8.7 °C 34.9 °F /  1.6 °C 30.37in /  1028.3hPa Calm     61% 0.00in /  0mm 0.0 W/m2
00:32 47.5 °F /  8.6 °C 34.7 °F /  1.5 °C 30.37in /  1028.3hPa Calm   1.0mph /  1.6km/h 61% 0.00in /  0mm 0.0 W/m2
00:38 47.5 °F /  8.6 °C 34.7 °F /  1.5 °C 30.37in /  1028.3hPa Calm   1.0mph /  1.6km/h 61% 0.00in /  0mm 0.0 W/m2
00:44 47.5 °F /  8.6 °C 34.7 °F /  1.5 °C 30.37in /  1028.3hPa Calm     61% 0.00in /  0mm 0.0 W/m2
00:50 47.7 °F /  8.7 °C 34.9 °F /  1.6 °C 30.37in /  1028.3hPa Calm     61% 0.00in /  0mm 0.0 W/m2
00:56 47.5 °F /  8.6 °C 34.7 °F /  1.5 °C 30.37in /  1028.3hPa Calm   1.0mph /  1.6km/h 61% 0.00in /  0mm 0.0 W/m2
01:02 47.5 °F /  8.6 °C 34.7 °F /  1.5 °C 30.37in /  1028.3hPa Calm     61% 0.00in /  0mm 0.0 W/m2
01:09 47.5 °F /  8.6 °C 34.7 °F /  1.5 °C 30.37in /  1028.3hPa Calm   1.0mph /  1.6km/h 61% 0.00in /  0mm 0.0 W/m2
01:15 47.5 °F /  8.6 °C 35.1 °F /  1.7 °C 30.37in /  1028.3hPa Calm     62% 0.00in /  0mm 0.0 W/m2
01:21 47.5 °F /  8.6 °C 35.1 °F /  1.7 °C 30.37in /  1028.3hPa Calm   3.0mph /  4.8km/h 62% 0.00in /  0mm 0.0 W/m2
01:27 47.5 °F /  8.6 °C 35.1 °F /  1.7 °C 30.36in /  1028hPa Calm     62% 0.00in /  0mm 0.0 W/m2
01:33 47.5 °F /  8.6 °C 35.1 °F /  1.7 °C 30.37in /  1028.3hPa Calm   1.0mph /  1.6km/h 62% 0.00in /  0mm 0.0 W/m2
01:39 47.5 °F /  8.6 °C 35.1 °F /  1.7 °C 30.36in /  1028hPa Calm   2.0mph /  3.2km/h 62% 0.00in /  0mm 0.0 W/m2
01:45 47.5 °F /  8.6 °C 35.1 °F /  1.7 °C 30.36in /  1028hPa Calm   2.0mph /  3.2km/h 62% 0.00in /  0mm 0.0 W/m2
01:51 47.5 °F /  8.6 °C 35.1 °F /  1.7 °C 30.36in /  1028hPa Calm   1.0mph /  1.6km/h 62% 0.00in /  0mm 0.0 W/m2
01:58 47.5 °F /  8.6 °C 35.1 °F /  1.7 °C 30.36in /  1028hPa Calm   2.0mph /  3.2km/h 62% 0.00in /  0mm 0.0 W/m2
02:04 47.3 °F /  8.5 °C 35.4 °F /  1.9 °C 30.36in /  1028hPa Calm   1.0mph /  1.6km/h 63% 0.00in /  0mm 0.0 W/m2
02:10 47.3 °F /  8.5 °C 35.4 °F /  1.9 °C 30.36in /  1028hPa Calm   1.0mph /  1.6km/h 63% 0.00in /  0mm 0.0 W/m2
02:16 47.1 °F /  8.4 °C 35.2 °F /  1.8 °C 30.36in /  1028hPa Calm     63% 0.00in /  0mm 0.0 W/m2
02:22 47.3 °F /  8.5 °C 35.4 °F /  1.9 °C 30.36in /  1028hPa Calm     63% 0.00in /  0mm 0.0 W/m2
02:28 47.1 °F /  8.4 °C 35.2 °F /  1.8 °C 30.36in /  1028hPa Calm     63% 0.00in /  0mm 0.0 W/m2
02:35 47.1 °F /  8.4 °C 35.2 °F /  1.8 °C 30.35in /  1027.7hPa Calm   2.0mph /  3.2km/h 63% 0.00in /  0mm 0.0 W/m2
02:41 46.9 °F /  8.3 °C 35.1 °F /  1.7 °C 30.35in /  1027.7hPa Calm   2.0mph /  3.2km/h 63% 0.00in /  0mm 0.0 W/m2
02:47 46.9 °F /  8.3 °C 35.4 °F /  1.9 °C 30.35in /  1027.7hPa Calm     64% 0.00in /  0mm 0.0 W/m2
02:53 46.9 °F /  8.3 °C 35.4 °F /  1.9 °C 30.35in /  1027.7hPa Calm     64% 0.00in /  0mm 0.0 W/m2
02:59 46.8 °F /  8.2 °C 35.2 °F /  1.8 °C 30.35in /  1027.7hPa Calm     64% 0.00in /  0mm 0.0 W/m2
03:05 46.8 °F /  8.2 °C 35.2 °F /  1.8 °C 30.35in /  1027.7hPa Calm     64% 0.00in /  0mm 0.0 W/m2
03:11 46.6 °F /  8.1 °C 35.4 °F /  1.9 °C 30.35in /  1027.7hPa Calm   1.0mph /  1.6km/h 65% 0.00in /  0mm 0.0 W/m2
03:17 46.6 °F /  8.1 °C 35.4 °F /  1.9 °C 30.35in /  1027.7hPa Calm     65% 0.00in /  0mm 0.0 W/m2
03:24 46.6 °F /  8.1 °C 35.4 °F /  1.9 °C 30.35in /  1027.7hPa Calm   1.0mph /  1.6km/h 65% 0.00in /  0mm 0.0 W/m2
03:30 46.6 °F /  8.1 °C 35.4 °F /  1.9 °C 30.35in /  1027.7hPa Calm     65% 0.00in /  0mm 0.0 W/m2
03:36 46.4 °F /  8 °C 35.2 °F /  1.8 °C 30.35in /  1027.7hPa East 0.9mph /  1.4km/h 1.0mph /  1.6km/h 65% 0.00in /  0mm 0.0 W/m2
03:42 46.2 °F /  7.9 °C 35.1 °F /  1.7 °C 30.35in /  1027.7hPa Calm   2.0mph /  3.2km/h 65% 0.00in /  0mm 0.0 W/m2
03:48 46.2 °F /  7.9 °C 35.4 °F /  1.9 °C 30.35in /  1027.7hPa Calm   1.0mph /  1.6km/h 66% 0.00in /  0mm 0.0 W/m2
03:54 46.2 °F /  7.9 °C 35.4 °F /  1.9 °C 30.35in /  1027.7hPa Calm   1.0mph /  1.6km/h 66% 0.00in /  0mm 0.0 W/m2
04:00 46.2 °F /  7.9 °C 35.4 °F /  1.9 °C 30.35in /  1027.7hPa Calm   2.0mph /  3.2km/h 66% 0.00in /  0mm 0.0 W/m2
04:07 46.2 °F /  7.9 °C 35.4 °F /  1.9 °C 30.35in /  1027.7hPa Calm   1.0mph /  1.6km/h 66% 0.00in /  0mm 0.0 W/m2
04:13 46.0 °F /  7.8 °C 35.2 °F /  1.8 °C 30.30in /  1026hPa Calm   1.0mph /  1.6km/h 66% 0.00in /  0mm 0.0 W/m2
04:19 46.0 °F /  7.8 °C 35.8 °F /  2.1 °C 30.30in /  1026hPa Calm   2.0mph /  3.2km/h 67% 0.00in /  0mm 0.0 W/m2
04:25 46.0 °F /  7.8 °C 35.8 °F /  2.1 °C 30.30in /  1026hPa Calm   1.0mph /  1.6km/h 67% 0.00in /  0mm 0.0 W/m2
04:31 46.0 °F /  7.8 °C 35.8 °F /  2.1 °C 30.30in /  1026hPa Calm     67% 0.00in /  0mm 0.0 W/m2
04:37 45.9 °F /  7.7 °C 35.6 °F /  2 °C 30.30in /  1026hPa Calm   2.0mph /  3.2km/h 67% 0.00in /  0mm 0.0 W/m2
04:43 45.9 °F /  7.7 °C 35.6 °F /  2 °C 30.30in /  1026hPa East 2.9mph /  4.7km/h 3.0mph /  4.8km/h 67% 0.00in /  0mm 0.0 W/m2
04:49 45.9 °F /  7.7 °C 35.6 °F /  2 °C 30.30in /  1026hPa East 0.9mph /  1.4km/h 3.0mph /  4.8km/h 67% 0.00in /  0mm 0.0 W/m2
04:56 45.9 °F /  7.7 °C 35.6 °F /  2 °C 30.31in /  1026.3hPa Calm   1.0mph /  1.6km/h 67% 0.00in /  0mm 0.0 W/m2
05:02 45.7 °F /  7.6 °C 35.8 °F /  2.1 °C 30.31in /  1026.3hPa Calm   3.0mph /  4.8km/h 68% 0.00in /  0mm 0.0 W/m2
05:08 45.7 °F /  7.6 °C 35.8 °F /  2.1 °C 30.31in /  1026.3hPa Calm   1.0mph /  1.6km/h 68% 0.00in /  0mm 0.0 W/m2
05:14 45.7 °F /  7.6 °C 35.8 °F /  2.1 °C 30.31in /  1026.3hPa Calm   1.0mph /  1.6km/h 68% 0.00in /  0mm 0.0 W/m2
05:26 45.5 °F /  7.5 °C 36.0 °F /  2.2 °C 30.31in /  1026.3hPa Calm   3.0mph /  4.8km/h 69% 0.00in /  0mm 0.0 W/m2
05:32 45.3 °F /  7.4 °C 35.8 °F /  2.1 °C 30.31in /  1026.3hPa Calm   1.0mph /  1.6km/h 69% 0.00in /  0mm 0.0 W/m2
05:39 45.3 °F /  7.4 °C 35.8 °F /  2.1 °C 30.31in /  1026.3hPa Calm     69% 0.00in /  0mm 0.0 W/m2
05:45 45.3 °F /  7.4 °C 35.8 °F /  2.1 °C 30.31in /  1026.3hPa Calm     69% 0.00in /  0mm 0.0 W/m2
05:51 45.3 °F /  7.4 °C 35.8 °F /  2.1 °C 30.31in /  1026.3hPa Calm   1.0mph /  1.6km/h 69% 0.00in /  0mm 0.0 W/m2
05:57 45.3 °F /  7.4 °C 35.8 °F /  2.1 °C 30.32in /  1026.6hPa Calm     69% 0.00in /  0mm 0.0 W/m2
06:03 45.1 °F /  7.3 °C 35.6 °F /  2 °C 30.32in /  1026.6hPa Calm     69% 0.00in /  0mm 0.0 W/m2
06:09 45.0 °F /  7.2 °C 35.8 °F /  2.1 °C 30.32in /  1026.6hPa Calm     70% 0.00in /  0mm 0.0 W/m2
06:15 45.0 °F /  7.2 °C 35.8 °F /  2.1 °C 30.32in /  1026.6hPa Calm     70% 0.00in /  0mm 0.0 W/m2
06:22 44.8 °F /  7.1 °C 36.0 °F /  2.2 °C 30.32in /  1026.6hPa Calm     71% 0.00in /  0mm 0.0 W/m2
06:28 44.8 °F /  7.1 °C 36.0 °F /  2.2 °C 30.32in /  1026.6hPa Calm     71% 0.00in /  0mm 7.0 W/m2
06:34 44.8 °F /  7.1 °C 36.0 °F /  2.2 °C 30.32in /  1026.6hPa Calm     71% 0.00in /  0mm 9.0 W/m2
06:40 44.8 °F /  7.1 °C 36.0 °F /  2.2 °C 30.32in /  1026.6hPa Calm     71% 0.00in /  0mm 11.0 W/m2
06:48 44.8 °F /  7.1 °C 36.3 °F /  2.4 °C 30.32in /  1026.6hPa Calm     72% 0.00in /  0mm 14.0 W/m2
06:54 45.0 °F /  7.2 °C 36.5 °F /  2.5 °C 30.33in /  1027hPa Calm   1.0mph /  1.6km/h 72% 0.00in /  0mm 16.0 W/m2
07:00 45.0 °F /  7.2 °C 36.5 °F /  2.5 °C 30.33in /  1027hPa Calm   1.0mph /  1.6km/h 72% 0.00in /  0mm 18.0 W/m2
07:06 45.1 °F /  7.3 °C 36.7 °F /  2.6 °C 30.33in /  1027hPa Calm     72% 0.00in /  0mm 19.0 W/m2
07:13 45.1 °F /  7.3 °C 37.0 °F /  2.8 °C 30.34in /  1027.3hPa Calm   1.0mph /  1.6km/h 73% 0.00in /  0mm 21.0 W/m2
07:19 45.5 °F /  7.5 °C 37.4 °F /  3 °C 30.34in /  1027.3hPa Calm   1.0mph /  1.6km/h 73% 0.00in /  0mm 21.0 W/m2
07:25 45.9 °F /  7.7 °C 37.8 °F /  3.2 °C 30.34in /  1027.3hPa Calm   1.0mph /  1.6km/h 73% 0.00in /  0mm 23.0 W/m2
07:31 46.2 °F /  7.9 °C 38.1 °F /  3.4 °C 30.34in /  1027.3hPa Calm   1.0mph /  1.6km/h 73% 0.00in /  0mm 25.0 W/m2
07:37 46.6 °F /  8.1 °C 38.1 °F /  3.4 °C 30.34in /  1027.3hPa Calm     72% 0.00in /  0mm 26.0 W/m2
07:43 46.9 °F /  8.3 °C 38.7 °F /  3.7 °C 30.34in /  1027.3hPa Calm   1.0mph /  1.6km/h 73% 0.00in /  0mm 26.0 W/m2
07:49 47.5 °F /  8.6 °C 38.8 °F /  3.8 °C 30.34in /  1027.3hPa Calm     72% 0.00in /  0mm 28.0 W/m2
07:55 48.4 °F /  9.1 °C 39.4 °F /  4.1 °C 30.34in /  1027.3hPa Calm     71% 0.00in /  0mm 30.0 W/m2
08:01 50.4 °F /  10.2 °C 40.3 °F /  4.6 °C 30.35in /  1027.7hPa Calm     68% 0.00in /  0mm 37.0 W/m2
08:08 53.1 °F /  11.7 °C 40.8 °F /  4.9 °C 30.35in /  1027.7hPa Calm     63% 0.00in /  0mm 336.0 W/m2
08:14 55.2 °F /  12.9 °C 40.3 °F /  4.6 °C 30.35in /  1027.7hPa Calm     57% 0.00in /  0mm 357.0 W/m2
08:22 57.7 °F /  14.3 °C 40.6 °F /  4.8 °C 30.35in /  1027.7hPa NNE 0.9mph /  1.4km/h 2.0mph /  3.2km/h 53% 0.00in /  0mm 385.0 W/m2
08:28 59.5 °F /  15.3 °C 40.8 °F /  4.9 °C 30.35in /  1027.7hPa Calm   1.0mph /  1.6km/h 50% 0.00in /  0mm 404.0 W/m2
08:34 61.0 °F /  16.1 °C 40.1 °F /  4.5 °C 30.35in /  1027.7hPa Calm   1.0mph /  1.6km/h 46% 0.00in /  0mm 422.0 W/m2
08:40 62.2 °F /  16.8 °C 40.1 °F /  4.5 °C 30.36in /  1028hPa NW 0.9mph /  1.4km/h 3.0mph /  4.8km/h 44% 0.00in /  0mm 443.0 W/m2
08:46 63.5 °F /  17.5 °C 39.9 °F /  4.4 °C 30.36in /  1028hPa Calm   4.0mph /  6.4km/h 42% 0.00in /  0mm 461.0 W/m2
08:53 64.2 °F /  17.9 °C 40.1 °F /  4.5 °C 30.36in /  1028hPa NNE 0.9mph /  1.4km/h 1.0mph /  1.6km/h 41% 0.00in /  0mm 478.0 W/m2
08:59 64.9 °F /  18.3 °C 40.1 °F /  4.5 °C 30.36in /  1028hPa Calm   2.0mph /  3.2km/h 40% 0.00in /  0mm 496.0 W/m2
09:05 65.7 °F /  18.7 °C 40.6 °F /  4.8 °C 30.36in /  1028hPa NNW 2.0mph /  3.2km/h 2.0mph /  3.2km/h 40% 0.00in /  0mm 512.0 W/m2
09:11 66.4 °F /  19.1 °C 40.6 °F /  4.8 °C 30.36in /  1028hPa NW 2.9mph /  4.7km/h 6.0mph /  9.7km/h 39% 0.00in /  0mm 527.0 W/m2
09:17 66.9 °F /  19.4 °C 40.5 °F /  4.7 °C 30.36in /  1028hPa NW 0.9mph /  1.4km/h 4.0mph /  6.4km/h 38% 0.00in /  0mm 541.0 W/m2
09:23 67.6 °F /  19.8 °C 39.7 °F /  4.3 °C 30.36in /  1028hPa Calm   3.0mph /  4.8km/h 36% 0.00in /  0mm 557.0 W/m2
09:29 68.0 °F /  20 °C 40.8 °F /  4.9 °C 30.35in /  1027.7hPa Calm   2.0mph /  3.2km/h 37% 0.00in /  0mm 571.0 W/m2
09:35 68.4 °F /  20.2 °C 41.0 °F /  5 °C 30.35in /  1027.7hPa WSW 0.9mph /  1.4km/h 5.0mph /  8km/h 37% 0.00in /  0mm 584.0 W/m2
09:42 68.5 °F /  20.3 °C 39.7 °F /  4.3 °C 30.35in /  1027.7hPa Calm   2.0mph /  3.2km/h 35% 0.00in /  0mm 594.0 W/m2
09:48 68.9 °F /  20.5 °C 40.1 °F /  4.5 °C 30.35in /  1027.7hPa NNW 2.0mph /  3.2km/h 3.0mph /  4.8km/h 35% 0.00in /  0mm 606.0 W/m2
09:54 69.3 °F /  20.7 °C 39.7 °F /  4.3 °C 30.35in /  1027.7hPa Calm   3.0mph /  4.8km/h 34% 0.00in /  0mm 617.0 W/m2
10:00 69.6 °F /  20.9 °C 39.9 °F /  4.4 °C 30.35in /  1027.7hPa Calm   4.0mph /  6.4km/h 34% 0.00in /  0mm 626.0 W/m2
10:06 69.6 °F /  20.9 °C 39.9 °F /  4.4 °C 30.35in /  1027.7hPa West 0.9mph /  1.4km/h 2.0mph /  3.2km/h 34% 0.00in /  0mm 629.0 W/m2
10:12 69.8 °F /  21 °C 39.4 °F /  4.1 °C 30.34in /  1027.3hPa NE 2.0mph /  3.2km/h 5.0mph /  8km/h 33% 0.00in /  0mm 649.0 W/m2
10:18 69.6 °F /  20.9 °C 39.2 °F /  4 °C 30.34in /  1027.3hPa NW 4.9mph /  7.9km/h 5.0mph /  8km/h 33% 0.00in /  0mm 656.0 W/m2
10:24 69.4 °F /  20.8 °C 39.0 °F /  3.9 °C 30.34in /  1027.3hPa NW 2.0mph /  3.2km/h 6.0mph /  9.7km/h 33% 0.00in /  0mm 671.0 W/m2
10:31 69.4 °F /  20.8 °C 39.9 °F /  4.4 °C 30.34in /  1027.3hPa West 6.9mph /  11.1km/h 7.0mph /  11.3km/h 34% 0.00in /  0mm 671.0 W/m2
10:37 69.4 °F /  20.8 °C 39.9 °F /  4.4 °C 30.34in /  1027.3hPa NW 2.0mph /  3.2km/h 7.0mph /  11.3km/h 34% 0.00in /  0mm 691.0 W/m2
10:43 69.6 °F /  20.9 °C 39.2 °F /  4 °C 30.34in /  1027.3hPa West 0.9mph /  1.4km/h 2.0mph /  3.2km/h 33% 0.00in /  0mm 693.0 W/m2
10:49 70.0 °F /  21.1 °C 39.6 °F /  4.2 °C 30.34in /  1027.3hPa NNW 2.0mph /  3.2km/h 11.0mph /  17.7km/h 33% 0.00in /  0mm 698.0 W/m2
10:55 70.2 °F /  21.2 °C 38.8 °F /  3.8 °C 30.34in /  1027.3hPa West 0.9mph /  1.4km/h 7.0mph /  11.3km/h 32% 0.00in /  0mm 705.0 W/m2
11:01 70.2 °F /  21.2 °C 38.8 °F /  3.8 °C 30.33in /  1027hPa Calm   7.0mph /  11.3km/h 32% 0.00in /  0mm 710.0 W/m2
11:07 70.3 °F /  21.3 °C 39.0 °F /  3.9 °C 30.33in /  1027hPa NNW 4.0mph /  6.4km/h 11.0mph /  17.7km/h 32% 0.00in /  0mm 714.0 W/m2
11:13 70.2 °F /  21.2 °C 39.7 °F /  4.3 °C 30.32in /  1026.6hPa NE 0.9mph /  1.4km/h 4.0mph /  6.4km/h 33% 0.00in /  0mm 717.0 W/m2
11:20 70.3 °F /  21.3 °C 40.6 °F /  4.8 °C 30.32in /  1026.6hPa Calm   2.0mph /  3.2km/h 34% 0.00in /  0mm 714.0 W/m2
11:26 70.3 °F /  21.3 °C 39.9 °F /  4.4 °C 30.32in /  1026.6hPa North 2.0mph /  3.2km/h 8.0mph /  12.9km/h 33% 0.00in /  0mm 724.0 W/m2
11:32 70.5 °F /  21.4 °C 39.2 °F /  4 °C 30.31in /  1026.3hPa NNW 2.0mph /  3.2km/h 4.0mph /  6.4km/h 32% 0.00in /  0mm 721.0 W/m2
11:38 70.5 °F /  21.4 °C 39.2 °F /  4 °C 30.31in /  1026.3hPa Calm   8.0mph /  12.9km/h 32% 0.00in /  0mm 722.0 W/m2
11:44 70.7 °F /  21.5 °C 39.4 °F /  4.1 °C 30.31in /  1026.3hPa Calm   7.0mph /  11.3km/h 32% 0.00in /  0mm 726.0 W/m2
11:50 71.2 °F /  21.8 °C 40.6 °F /  4.8 °C 30.30in /  1026hPa Calm   4.0mph /  6.4km/h 33% 0.00in /  0mm 724.0 W/m2
11:56 71.4 °F /  21.9 °C 39.2 °F /  4 °C 30.30in /  1026hPa NNE 6.9mph /  11.1km/h 10.0mph /  16.1km/h 31% 0.00in /  0mm 724.0 W/m2
12:02 71.4 °F /  21.9 °C 39.2 °F /  4 °C 30.30in /  1026hPa North 4.0mph /  6.4km/h 5.0mph /  8km/h 31% 0.00in /  0mm 721.0 W/m2
12:09 71.4 °F /  21.9 °C 39.2 °F /  4 °C 30.29in /  1025.6hPa North 2.9mph /  4.7km/h 4.0mph /  6.4km/h 31% 0.00in /  0mm 717.0 W/m2
12:15 71.6 °F /  22 °C 40.1 °F /  4.5 °C 30.29in /  1025.6hPa NW 2.0mph /  3.2km/h 7.0mph /  11.3km/h 32% 0.00in /  0mm 714.0 W/m2
12:21 71.8 °F /  22.1 °C 39.6 °F /  4.2 °C 30.29in /  1025.6hPa Calm   1.0mph /  1.6km/h 31% 0.00in /  0mm 703.0 W/m2
12:27 72.0 °F /  22.2 °C 39.7 °F /  4.3 °C 30.29in /  1025.6hPa Calm   7.0mph /  11.3km/h 31% 0.00in /  0mm 710.0 W/m2
12:33 72.0 °F /  22.2 °C 38.8 °F /  3.8 °C 30.28in /  1025.3hPa Calm   6.0mph /  9.7km/h 30% 0.00in /  0mm 698.0 W/m2
12:39 72.0 °F /  22.2 °C 38.8 °F /  3.8 °C 30.28in /  1025.3hPa NNW 2.0mph /  3.2km/h 8.0mph /  12.9km/h 30% 0.00in /  0mm 698.0 W/m2
12:45 72.0 °F /  22.2 °C 38.8 °F /  3.8 °C 30.27in /  1024.9hPa NNE 0.9mph /  1.4km/h 6.0mph /  9.7km/h 30% 0.00in /  0mm 687.0 W/m2
12:51 72.1 °F /  22.3 °C 39.9 °F /  4.4 °C 30.27in /  1024.9hPa NNW 4.9mph /  7.9km/h 5.0mph /  8km/h 31% 0.00in /  0mm 682.0 W/m2
12:57 72.3 °F /  22.4 °C 38.3 °F /  3.5 °C 30.27in /  1024.9hPa North 4.9mph /  7.9km/h 9.0mph /  14.5km/h 29% 0.00in /  0mm 677.0 W/m2
13:03 72.1 °F /  22.3 °C 38.1 °F /  3.4 °C 30.26in /  1024.6hPa North 4.0mph /  6.4km/h 7.0mph /  11.3km/h 29% 0.00in /  0mm 668.0 W/m2
13:10 72.1 °F /  22.3 °C 38.1 °F /  3.4 °C 30.26in /  1024.6hPa NNE 2.0mph /  3.2km/h 11.0mph /  17.7km/h 29% 0.00in /  0mm 656.0 W/m2
13:16 72.3 °F /  22.4 °C 39.2 °F /  4 °C 30.26in /  1024.6hPa WNW 2.0mph /  3.2km/h 8.0mph /  12.9km/h 30% 0.00in /  0mm 647.0 W/m2
13:22 72.3 °F /  22.4 °C 38.3 °F /  3.5 °C 30.25in /  1024.3hPa NW 2.9mph /  4.7km/h 7.0mph /  11.3km/h 29% 0.00in /  0mm 642.0 W/m2
13:28 72.3 °F /  22.4 °C 38.3 °F /  3.5 °C 30.26in /  1024.6hPa North 6.0mph /  9.7km/h 9.0mph /  14.5km/h 29% 0.00in /  0mm 624.0 W/m2
13:34 72.3 °F /  22.4 °C 39.2 °F /  4 °C 30.26in /  1024.6hPa Calm   7.0mph /  11.3km/h 30% 0.00in /  0mm 610.0 W/m2
13:40 72.7 °F /  22.6 °C 40.3 °F /  4.6 °C 30.25in /  1024.3hPa North 2.0mph /  3.2km/h 4.0mph /  6.4km/h 31% 0.00in /  0mm 601.0 W/m2
13:47 72.9 °F /  22.7 °C 39.6 °F /  4.2 °C 30.25in /  1024.3hPa NNW 8.1mph /  13km/h 12.0mph /  19.3km/h 30% 0.00in /  0mm 587.0 W/m2
13:53 72.9 °F /  22.7 °C 39.6 °F /  4.2 °C 30.25in /  1024.3hPa NNW 4.9mph /  7.9km/h 6.0mph /  9.7km/h 30% 0.00in /  0mm 571.0 W/m2
13:59 72.9 °F /  22.7 °C 39.6 °F /  4.2 °C 30.24in /  1023.9hPa NNW 2.9mph /  4.7km/h 6.0mph /  9.7km/h 30% 0.00in /  0mm 559.0 W/m2
14:05 72.9 °F /  22.7 °C 39.6 °F /  4.2 °C 30.24in /  1023.9hPa Calm   3.0mph /  4.8km/h 30% 0.00in /  0mm 545.0 W/m2
14:11 73.0 °F /  22.8 °C 39.7 °F /  4.3 °C 30.24in /  1023.9hPa NNW 6.9mph /  11.1km/h 7.0mph /  11.3km/h 30% 0.00in /  0mm 534.0 W/m2
14:17 73.0 °F /  22.8 °C 39.7 °F /  4.3 °C 30.24in /  1023.9hPa West 0.9mph /  1.4km/h 7.0mph /  11.3km/h 30% 0.00in /  0mm 520.0 W/m2
14:23 73.0 °F /  22.8 °C 38.8 °F /  3.8 °C 30.24in /  1023.9hPa Calm   7.0mph /  11.3km/h 29% 0.00in /  0mm 504.0 W/m2
14:29 73.0 °F /  22.8 °C 39.7 °F /  4.3 °C 30.24in /  1023.9hPa Calm   3.0mph /  4.8km/h 30% 0.00in /  0mm 487.0 W/m2
14:35 73.0 °F /  22.8 °C 38.8 °F /  3.8 °C 30.24in /  1023.9hPa NNW 4.0mph /  6.4km/h 6.0mph /  9.7km/h 29% 0.00in /  0mm 471.0 W/m2
14:41 72.9 °F /  22.7 °C 39.6 °F /  4.2 °C 30.24in /  1023.9hPa NW 0.9mph /  1.4km/h 8.0mph /  12.9km/h 30% 0.00in /  0mm 450.0 W/m2
14:47 73.0 °F /  22.8 °C 40.6 °F /  4.8 °C 30.23in /  1023.6hPa Calm   1.0mph /  1.6km/h 31% 0.00in /  0mm 438.0 W/m2
14:53 72.9 °F /  22.7 °C 39.6 °F /  4.2 °C 30.24in /  1023.9hPa West 2.0mph /  3.2km/h 6.0mph /  9.7km/h 30% 0.00in /  0mm 422.0 W/m2
14:59 72.7 °F /  22.6 °C 39.4 °F /  4.1 °C 30.23in /  1023.6hPa NW 2.9mph /  4.7km/h 6.0mph /  9.7km/h 30% 0.00in /  0mm 403.0 W/m2
15:05 72.3 °F /  22.4 °C 39.2 °F /  4 °C 30.23in /  1023.6hPa NNE 2.9mph /  4.7km/h 5.0mph /  8km/h 30% 0.00in /  0mm 385.0 W/m2
15:11 72.1 °F /  22.3 °C 39.9 °F /  4.4 °C 30.23in /  1023.6hPa Calm   3.0mph /  4.8km/h 31% 0.00in /  0mm 366.0 W/m2
15:17 72.1 °F /  22.3 °C 39.9 °F /  4.4 °C 30.24in /  1023.9hPa SW 0.9mph /  1.4km/h 4.0mph /  6.4km/h 31% 0.00in /  0mm 348.0 W/m2
15:23 72.0 °F /  22.2 °C 38.8 °F /  3.8 °C 30.23in /  1023.6hPa NNW 4.0mph /  6.4km/h 6.0mph /  9.7km/h 30% 0.00in /  0mm 329.0 W/m2
15:29 71.8 °F /  22.1 °C 39.6 °F /  4.2 °C 30.23in /  1023.6hPa NNW 0.9mph /  1.4km/h 3.0mph /  4.8km/h 31% 0.00in /  0mm 51.0 W/m2
15:35 71.4 °F /  21.9 °C 38.3 °F /  3.5 °C 30.24in /  1023.9hPa NW 4.0mph /  6.4km/h 5.0mph /  8km/h 30% 0.00in /  0mm 46.0 W/m2
15:41 71.1 °F /  21.7 °C 38.1 °F /  3.4 °C 30.23in /  1023.6hPa North 2.0mph /  3.2km/h 4.0mph /  6.4km/h 30% 0.00in /  0mm 44.0 W/m2
15:47 70.9 °F /  21.6 °C 38.7 °F /  3.7 °C 30.23in /  1023.6hPa NNE 2.9mph /  4.7km/h 5.0mph /  8km/h 31% 0.00in /  0mm 40.0 W/m2
15:53 70.3 °F /  21.3 °C 38.3 °F /  3.5 °C 30.24in /  1023.9hPa Calm   2.0mph /  3.2km/h 31% 0.00in /  0mm 39.0 W/m2
15:59 70.2 °F /  21.2 °C 38.8 °F /  3.8 °C 30.24in /  1023.9hPa Calm   1.0mph /  1.6km/h 32% 0.00in /  0mm 33.0 W/m2
16:05 69.8 °F /  21 °C 38.7 °F /  3.7 °C 30.24in /  1023.9hPa Calm   5.0mph /  8km/h 32% 0.00in /  0mm 30.0 W/m2
16:11 69.4 °F /  20.8 °C 38.3 °F /  3.5 °C 30.24in /  1023.9hPa Calm   3.0mph /  4.8km/h 32% 0.00in /  0mm 26.0 W/m2
16:17 69.3 °F /  20.7 °C 38.1 °F /  3.4 °C 30.24in /  1023.9hPa Calm   3.0mph /  4.8km/h 32% 0.00in /  0mm 25.0 W/m2
16:23 68.7 °F /  20.4 °C 38.5 °F /  3.6 °C 30.24in /  1023.9hPa NNW 0.9mph /  1.4km/h 3.0mph /  4.8km/h 33% 0.00in /  0mm 25.0 W/m2
16:29 68.5 °F /  20.3 °C 38.3 °F /  3.5 °C 30.24in /  1023.9hPa North 0.9mph /  1.4km/h 2.0mph /  3.2km/h 33% 0.00in /  0mm 21.0 W/m2
16:35 68.4 °F /  20.2 °C 38.1 °F /  3.4 °C 30.24in /  1023.9hPa NNW 0.9mph /  1.4km/h 7.0mph /  11.3km/h 33% 0.00in /  0mm 21.0 W/m2
16:41 68.0 °F /  20 °C 38.7 °F /  3.7 °C 30.24in /  1023.9hPa Calm     34% 0.00in /  0mm 19.0 W/m2
16:47 67.6 °F /  19.8 °C 38.3 °F /  3.5 °C 30.25in /  1024.3hPa Calm   3.0mph /  4.8km/h 34% 0.00in /  0mm 18.0 W/m2
16:53 67.5 °F /  19.7 °C 38.1 °F /  3.4 °C 30.25in /  1024.3hPa Calm   1.0mph /  1.6km/h 34% 0.00in /  0mm 14.0 W/m2
16:59 67.3 °F /  19.6 °C 38.7 °F /  3.7 °C 30.25in /  1024.3hPa Calm   2.0mph /  3.2km/h 35% 0.00in /  0mm 12.0 W/m2
17:05 66.7 °F /  19.3 °C 39.0 °F /  3.9 °C 30.25in /  1024.3hPa Calm     36% 0.00in /  0mm 9.0 W/m2
17:11 66.4 °F /  19.1 °C 38.7 °F /  3.7 °C 30.25in /  1024.3hPa Calm     36% 0.00in /  0mm 5.0 W/m2
17:17 65.8 °F /  18.8 °C 39.6 °F /  4.2 °C 30.25in /  1024.3hPa Calm     38% 0.00in /  0mm 0.0 W/m2
17:23 65.1 °F /  18.4 °C 39.6 °F /  4.2 °C 30.26in /  1024.6hPa Calm     39% 0.00in /  0mm 0.0 W/m2
17:29 64.6 °F /  18.1 °C 39.0 °F /  3.9 °C 30.26in /  1024.6hPa Calm     39% 0.00in /  0mm 0.0 W/m2
17:35 63.9 °F /  17.7 °C 39.0 °F /  3.9 °C 30.26in /  1024.6hPa Calm     40% 0.00in /  0mm 0.0 W/m2
17:41 63.3 °F /  17.4 °C 39.2 °F /  4 °C 30.26in /  1024.6hPa Calm     41% 0.00in /  0mm 0.0 W/m2
17:47 62.6 °F /  17 °C 38.5 °F /  3.6 °C 30.26in /  1024.6hPa Calm     41% 0.00in /  0mm 0.0 W/m2
17:53 62.1 °F /  16.7 °C 38.7 °F /  3.7 °C 30.26in /  1024.6hPa Calm     42% 0.00in /  0mm 0.0 W/m2
17:59 61.3 °F /  16.3 °C 38.7 °F /  3.7 °C 30.27in /  1024.9hPa Calm     43% 0.00in /  0mm 0.0 W/m2
18:05 60.8 °F /  16 °C 38.7 °F /  3.7 °C 30.27in /  1024.9hPa Calm     44% 0.00in /  0mm 0.0 W/m2
18:11 60.3 °F /  15.7 °C 38.3 °F /  3.5 °C 30.27in /  1024.9hPa Calm     44% 0.00in /  0mm 0.0 W/m2
18:17 59.5 °F /  15.3 °C 38.7 °F /  3.7 °C 30.27in /  1024.9hPa Calm     46% 0.00in /  0mm 0.0 W/m2
18:23 59.0 °F /  15 °C 38.3 °F /  3.5 °C 30.27in /  1024.9hPa Calm     46% 0.00in /  0mm 0.0 W/m2
18:29 58.6 °F /  14.8 °C 38.5 °F /  3.6 °C 30.27in /  1024.9hPa Calm     47% 0.00in /  0mm 0.0 W/m2
18:35 58.1 °F /  14.5 °C 37.9 °F /  3.3 °C 30.28in /  1025.3hPa Calm     47% 0.00in /  0mm 0.0 W/m2
18:41 57.6 °F /  14.2 °C 38.5 °F /  3.6 °C 30.28in /  1025.3hPa Calm     49% 0.00in /  0mm 0.0 W/m2
18:47 57.4 °F /  14.1 °C 38.3 °F /  3.5 °C 30.28in /  1025.3hPa Calm     49% 0.00in /  0mm 0.0 W/m2
18:53 56.8 °F /  13.8 °C 37.9 °F /  3.3 °C 30.28in /  1025.3hPa East 2.0mph /  3.2km/h 2.0mph /  3.2km/h 49% 0.00in /  0mm 0.0 W/m2
18:59 56.7 °F /  13.7 °C 37.8 °F /  3.2 °C 30.28in /  1025.3hPa ESE 2.0mph /  3.2km/h 3.0mph /  4.8km/h 49% 0.00in /  0mm 0.0 W/m2
19:05 56.8 °F /  13.8 °C 37.9 °F /  3.3 °C 30.28in /  1025.3hPa Calm   1.0mph /  1.6km/h 49% 0.00in /  0mm 0.0 W/m2
19:11 56.8 °F /  13.8 °C 37.9 °F /  3.3 °C 30.28in /  1025.3hPa Calm     49% 0.00in /  0mm 0.0 W/m2
19:17 56.7 °F /  13.7 °C 38.3 °F /  3.5 °C 30.28in /  1025.3hPa Calm   1.0mph /  1.6km/h 50% 0.00in /  0mm 0.0 W/m2
19:23 56.5 °F /  13.6 °C 38.1 °F /  3.4 °C 30.28in /  1025.3hPa Calm   2.0mph /  3.2km/h 50% 0.00in /  0mm 0.0 W/m2
19:29 56.5 °F /  13.6 °C 38.1 °F /  3.4 °C 30.29in /  1025.6hPa Calm   2.0mph /  3.2km/h 50% 0.00in /  0mm 0.0 W/m2
19:35 56.1 °F /  13.4 °C 37.8 °F /  3.2 °C 30.29in /  1025.6hPa Calm     50% 0.00in /  0mm 0.0 W/m2
19:41 55.9 °F /  13.3 °C 38.1 °F /  3.4 °C 30.29in /  1025.6hPa ESE 0.9mph /  1.4km/h 3.0mph /  4.8km/h 51% 0.00in /  0mm 0.0 W/m2
19:47 55.8 °F /  13.2 °C 37.9 °F /  3.3 °C 30.29in /  1025.6hPa ESE 0.9mph /  1.4km/h 1.0mph /  1.6km/h 51% 0.00in /  0mm 0.0 W/m2
19:53 55.4 °F /  13 °C 37.6 °F /  3.1 °C 30.29in /  1025.6hPa ESE 2.0mph /  3.2km/h 2.0mph /  3.2km/h 51% 0.00in /  0mm 0.0 W/m2
19:59 55.2 °F /  12.9 °C 37.9 °F /  3.3 °C 30.29in /  1025.6hPa Calm   2.0mph /  3.2km/h 52% 0.00in /  0mm 0.0 W/m2
20:05 54.9 °F /  12.7 °C 37.6 °F /  3.1 °C 30.29in /  1025.6hPa Calm   4.0mph /  6.4km/h 52% 0.00in /  0mm 0.0 W/m2
20:11 54.7 °F /  12.6 °C 37.9 °F /  3.3 °C 30.29in /  1025.6hPa Calm   3.0mph /  4.8km/h 53% 0.00in /  0mm 0.0 W/m2
20:17 54.3 °F /  12.4 °C 37.6 °F /  3.1 °C 30.29in /  1025.6hPa ESE 2.0mph /  3.2km/h 3.0mph /  4.8km/h 53% 0.00in /  0mm 0.0 W/m2
20:23 54.1 °F /  12.3 °C 37.9 °F /  3.3 °C 30.29in /  1025.6hPa SE 0.9mph /  1.4km/h 2.0mph /  3.2km/h 54% 0.00in /  0mm 0.0 W/m2
20:29 54.0 °F /  12.2 °C 37.8 °F /  3.2 °C 30.29in /  1025.6hPa Calm   3.0mph /  4.8km/h 54% 0.00in /  0mm 0.0 W/m2
20:35 54.0 °F /  12.2 °C 37.8 °F /  3.2 °C 30.29in /  1025.6hPa ENE 0.9mph /  1.4km/h 2.0mph /  3.2km/h 54% 0.00in /  0mm 0.0 W/m2
20:41 53.8 °F /  12.1 °C 37.6 °F /  3.1 °C 30.29in /  1025.6hPa East 2.0mph /  3.2km/h 2.0mph /  3.2km/h 54% 0.00in /  0mm 0.0 W/m2
20:47 53.8 °F /  12.1 °C 37.9 °F /  3.3 °C 30.30in /  1026hPa Calm   2.0mph /  3.2km/h 55% 0.00in /  0mm 0.0 W/m2
20:54 53.4 °F /  11.9 °C 37.6 °F /  3.1 °C 30.30in /  1026hPa Calm   1.0mph /  1.6km/h 55% 0.00in /  0mm 0.0 W/m2
21:00 53.4 °F /  11.9 °C 37.6 °F /  3.1 °C 30.29in /  1025.6hPa Calm   1.0mph /  1.6km/h 55% 0.00in /  0mm 0.0 W/m2
21:12 53.2 °F /  11.8 °C 37.4 °F /  3 °C 30.30in /  1026hPa ENE 0.9mph /  1.4km/h 4.0mph /  6.4km/h 55% 0.00in /  0mm 0.0 W/m2
21:18 53.2 °F /  11.8 °C 37.4 °F /  3 °C 30.30in /  1026hPa Calm   1.0mph /  1.6km/h 55% 0.00in /  0mm 0.0 W/m2
21:24 53.2 °F /  11.8 °C 37.9 °F /  3.3 °C 30.30in /  1026hPa Calm   3.0mph /  4.8km/h 56% 0.00in /  0mm 0.0 W/m2
21:30 53.2 °F /  11.8 °C 37.9 °F /  3.3 °C 30.30in /  1026hPa East 0.9mph /  1.4km/h 5.0mph /  8km/h 56% 0.00in /  0mm 0.0 W/m2
21:36 53.1 °F /  11.7 °C 37.8 °F /  3.2 °C 30.30in /  1026hPa East 0.9mph /  1.4km/h 4.0mph /  6.4km/h 56% 0.00in /  0mm 0.0 W/m2
21:42 53.1 °F /  11.7 °C 37.8 °F /  3.2 °C 30.30in /  1026hPa East 2.9mph /  4.7km/h 3.0mph /  4.8km/h 56% 0.00in /  0mm 0.0 W/m2
21:48 52.9 °F /  11.6 °C 37.6 °F /  3.1 °C 30.30in /  1026hPa Calm   4.0mph /  6.4km/h 56% 0.00in /  0mm 0.0 W/m2
21:54 52.9 °F /  11.6 °C 37.6 °F /  3.1 °C 30.30in /  1026hPa NE 2.9mph /  4.7km/h 3.0mph /  4.8km/h 56% 0.00in /  0mm 0.0 W/m2
22:00 52.9 °F /  11.6 °C 37.6 °F /  3.1 °C 30.30in /  1026hPa Calm   3.0mph /  4.8km/h 56% 0.00in /  0mm 0.0 W/m2
22:06 52.9 °F /  11.6 °C 37.6 °F /  3.1 °C 30.30in /  1026hPa Calm   1.0mph /  1.6km/h 56% 0.00in /  0mm 0.0 W/m2
22:12 52.7 °F /  11.5 °C 37.4 °F /  3 °C 30.30in /  1026hPa East 0.9mph /  1.4km/h 3.0mph /  4.8km/h 56% 0.00in /  0mm 0.0 W/m2
22:18 52.5 °F /  11.4 °C 37.2 °F /  2.9 °C 30.30in /  1026hPa East 0.9mph /  1.4km/h 3.0mph /  4.8km/h 56% 0.00in /  0mm 0.0 W/m2
22:24 52.5 °F /  11.4 °C 37.8 °F /  3.2 °C 30.30in /  1026hPa Calm   3.0mph /  4.8km/h 57% 0.00in /  0mm 0.0 W/m2
22:30 52.3 °F /  11.3 °C 37.6 °F /  3.1 °C 30.29in /  1025.6hPa Calm   1.0mph /  1.6km/h 57% 0.00in /  0mm 0.0 W/m2
22:36 52.3 °F /  11.3 °C 37.6 °F /  3.1 °C 30.30in /  1026hPa Calm   3.0mph /  4.8km/h 57% 0.00in /  0mm 0.0 W/m2
22:42 52.2 °F /  11.2 °C 37.4 °F /  3 °C 30.29in /  1025.6hPa Calm   1.0mph /  1.6km/h 57% 0.00in /  0mm 0.0 W/m2
22:48 52.0 °F /  11.1 °C 37.2 °F /  2.9 °C 30.30in /  1026hPa Calm   2.0mph /  3.2km/h 57% 0.00in /  0mm 0.0 W/m2
22:54 51.6 °F /  10.9 °C 37.4 °F /  3 °C 30.30in /  1026hPa Calm   2.0mph /  3.2km/h 58% 0.00in /  0mm 0.0 W/m2
23:00 51.6 °F /  10.9 °C 37.4 °F /  3 °C 30.30in /  1026hPa Calm   1.0mph /  1.6km/h 58% 0.00in /  0mm 0.0 W/m2
23:06 51.6 °F /  10.9 °C 37.4 °F /  3 °C 30.30in /  1026hPa Calm     58% 0.00in /  0mm 0.0 W/m2
23:12 51.6 °F /  10.9 °C 37.4 °F /  3 °C 30.30in /  1026hPa East 0.9mph /  1.4km/h 3.0mph /  4.8km/h 58% 0.00in /  0mm 0.0 W/m2
23:18 51.4 °F /  10.8 °C 37.2 °F /  2.9 °C 30.30in /  1026hPa Calm   1.0mph /  1.6km/h 58% 0.00in /  0mm 0.0 W/m2
23:24 51.4 °F /  10.8 °C 37.2 °F /  2.9 °C 30.30in /  1026hPa Calm   1.0mph /  1.6km/h 58% 0.00in /  0mm 0.0 W/m2
23:31 51.4 °F /  10.8 °C 37.6 °F /  3.1 °C 30.30in /  1026hPa Calm     59% 0.00in /  0mm 0.0 W/m2
23:37 51.3 °F /  10.7 °C 37.4 °F /  3 °C 30.29in /  1025.6hPa Calm   1.0mph /  1.6km/h 59% 0.00in /  0mm 0.0 W/m2
23:43 51.1 °F /  10.6 °C 37.2 °F /  2.9 °C 30.29in /  1025.6hPa ESE 2.0mph /  3.2km/h 5.0mph /  8km/h 59% 0.00in /  0mm 0.0 W/m2
23:49 51.1 °F /  10.6 °C 37.2 °F /  2.9 °C 30.30in /  1026hPa Calm   2.0mph /  3.2km/h 59% 0.00in /  0mm 0.0 W/m2
23:55 51.1 °F /  10.6 °C 37.2 °F /  2.9 °C 30.29in /  1025.6hPa Calm   3.0mph /  4.8km/h 59% 0.00in /  0mm 0.0 W/m2
Olympia, Windhoek, Namibia
Compliments of Weather Underground - 3 mb